Weather reports worldwide

Advertisment
Meierwik, Germany (10033): temperature & dewpoint: 12.10.2018 19:00:00 - 18.10.2018 19:00:00 (CEST)Meierwik, Germany (10033): wind speed & gusts: 12.10.2018 19:00:00 - 18.10.2018 19:00:00 (CEST)Meierwik, Germany (10033): wind direction: 12.10.2018 19:00:00 - 18.10.2018 19:00:00 (CEST)Meierwik, Germany (10033): reduced air pressure: 12.10.2018 19:00:00 - 18.10.2018 19:00:00 (CEST)Meierwik, Germany (10033): visibility: 12.10.2018 19:00:00 - 18.10.2018 19:00:00 (CEST)
Date & Time tt [°C] td [°C] ff [km/h] ff [kn] fx [km/h] fx [kn] dd ppp [hPa] vv [km]
18.10.2018 19:00:00 - - - - - - - - -
18.10.2018 18:00:00 12,6 4,7 14 8 - - N 1024,8 30
18.10.2018 17:00:00 13,6 3,7 18 10 - - N 1024,4 35
18.10.2018 16:00:00 14,0 5,2 18 10 - - NNW 1024,5 35
18.10.2018 15:00:00 13,8 6,6 18 10 - - N 1024,4 30
18.10.2018 14:00:00 14,9 7,2 22 12 - - NNE 1024,3 30
18.10.2018 13:00:00 14,4 7,5 29 16 - - N 1024,5 30
18.10.2018 12:00:00 13,8 7,3 29 16 - - NNE 1024,3 30
18.10.2018 11:00:00 13,1 8,1 29 16 - - NNE 1023,9 25
18.10.2018 10:00:00 12,1 8,0 25 14 - - N 1023,3 18
18.10.2018 09:00:00 12,7 10,4 22 12 - - N 1022,3 3,5
18.10.2018 08:00:00 13,1 12,1 26 14 - - N 1021,5 3,5
18.10.2018 07:00:00 12,8 12,0 7 4 - - NW 1020,9 2,5
18.10.2018 06:00:00 12,6 11,8 9 5 - - NNW 1020,8 3,0
18.10.2018 05:00:00 12,6 12,1 9 5 - - NNW 1020,6 3,8
18.10.2018 04:00:00 12,7 12,2 14 8 - - NNW 1020,3 0,4
18.10.2018 03:00:00 12,9 12,4 18 10 - - NW 1020,4 0,2
18.10.2018 02:00:00 11,3 10,8 14 8 - - WNW 1020,4 2,8
18.10.2018 01:00:00 11,3 10,6 11 6 - - W 1020,3 4,0
18.10.2018 00:00:00 11,8 11,0 11 6 - - WNW 1020,3 4,5
17.10.2018 23:00:00 13,6 12,3 11 6 - - WNW 1020,2 4,5
17.10.2018 22:00:00 14,1 12,8 18 10 - - WNW 1020,0 4,5
17.10.2018 21:00:00 14,3 13,5 21 11 - - WNW 1019,6 3,8
17.10.2018 20:00:00 13,3 12,4 14 8 - - W 1019,2 4,0
17.10.2018 19:00:00 14,3 12,7 14 8 - - W 1018,8 5
17.10.2018 18:00:00 16,6 12,7 11 6 - - W 1018,5 8
17.10.2018 17:00:00 17,3 13,1 14 8 - - W 1018,4 8
17.10.2018 16:00:00 18,0 13,5 18 10 - - W 1018,2 9
17.10.2018 15:00:00 20,5 12,9 11 6 - - W 1018,1 9
17.10.2018 14:00:00 20,7 12,5 18 10 - - SW 1018,0 9
17.10.2018 13:00:00 20,1 12,3 11 6 - - SW 1018,2 7
17.10.2018 12:00:00 18,2 13,1 11 6 - - SSW 1018,4 5
17.10.2018 11:00:00 16,3 13,6 7 4 - - WSW 1018,6 4,8
17.10.2018 10:00:00 13,8 13,3 14 8 - - S 1018,3 4,5
17.10.2018 09:00:00 11,1 10,9 4 2 - - N 1018,5 4,3
17.10.2018 08:00:00 11,1 10,8 4 2 - - N 1018,1 4,3
17.10.2018 07:00:00 11,2 10,7 7 4 - - S 1017,8 5
17.10.2018 06:00:00 11,3 10,8 7 4 - - S 1017,9 5
17.10.2018 05:00:00 11,7 11,2 7 4 - - S 1017,8 5
17.10.2018 04:00:00 11,1 10,5 7 4 - - SSW 1018,0 5
17.10.2018 03:00:00 10,6 10,1 7 4 - - S 1018,3 5
17.10.2018 02:00:00 10,7 10,2 4 2 - - S 1018,5 6
17.10.2018 01:00:00 11,2 10,7 4 2 - - N 1018,4 6
17.10.2018 00:00:00 12,3 11,8 11 6 - - S 1018,5 6
16.10.2018 23:00:00 13,0 12,4 11 6 - - S 1018,8 6
16.10.2018 22:00:00 11,9 11,3 11 6 - - S 1018,9 6
16.10.2018 21:00:00 12,6 12,0 7 4 - - SSW 1019,1 6
16.10.2018 20:00:00 12,9 12,2 11 6 - - WSW 1019,0 6
16.10.2018 19:00:00 14,3 13,1 14 8 - - W 1018,7 5
16.10.2018 18:00:00 15,6 13,4 14 8 - - W 1018,2 7
16.10.2018 17:00:00 16,9 13,1 18 10 - - W 1018,2 7
16.10.2018 16:00:00 17,2 14,0 14 8 - - W 1018,1 6
16.10.2018 15:00:00 17,2 13,8 22 12 - - W 1017,8 6
16.10.2018 14:00:00 17,3 13,6 14 8 - - WSW 1017,5 5
16.10.2018 13:00:00 17,4 14,0 11 6 - - SW 1017,6 4,0
16.10.2018 12:00:00 16,7 13,8 7 4 - - SW 1017,5 4,0
16.10.2018 11:00:00 15,3 13,0 7 4 - - WSW 1017,3 4,0
16.10.2018 10:00:00 14,9 12,7 4 2 - - N 1017,1 4,0
16.10.2018 09:00:00 12,6 11,7 11 6 - - SW 1016,7 4,5
16.10.2018 08:00:00 11,7 11,0 11 6 - - WSW 1016,3 4,5
16.10.2018 07:00:00 12,1 11,4 11 6 - - WSW 1015,7 -
16.10.2018 06:00:00 11,8 10,9 7 4 - - SW 1015,1 -
16.10.2018 05:00:00 12,9 11,8 7 4 - - SSW 1015,2 -
16.10.2018 04:00:00 12,9 11,8 7 4 - - SW 1015,3 -
16.10.2018 03:00:00 12,8 12,2 7 4 - - SW 1015,0 -
16.10.2018 02:00:00 13,1 12,3 7 4 - - WSW 1014,8 -
16.10.2018 01:00:00 13,0 12,4 4 2 - - SW 1014,7 -
16.10.2018 00:00:00 12,5 11,9 7 4 - - SSW 1014,7 -
15.10.2018 23:00:00 12,0 11,2 4 2 - - ESE 1014,4 -
15.10.2018 22:00:00 12,4 11,6 4 2 - - N 1014,3 -
15.10.2018 21:00:00 12,8 11,8 0 0 - - N 1014,0 -
15.10.2018 20:00:00 13,7 12,3 4 2 - - WNW 1013,8 -
15.10.2018 19:00:00 14,5 12,9 7 4 - - SW 1013,4 -
15.10.2018 18:00:00 17,7 13,6 11 6 - - SSW 1012,8 10
15.10.2018 17:00:00 20,0 12,4 7 4 - - SW 1012,6 15
15.10.2018 16:00:00 21,0 11,9 11 6 - - SSW 1012,3 15
15.10.2018 15:00:00 19,2 13,3 4 2 - - W 1012,1 15
15.10.2018 14:00:00 20,7 13,0 7 4 - - S 1012,1 15
15.10.2018 13:00:00 20,6 10,8 7 4 - - S 1012,4 15
15.10.2018 12:00:00 19,3 11,9 7 4 - - SSE 1012,5 15
15.10.2018 11:00:00 15,7 11,8 4 2 - - N 1012,4 15
15.10.2018 10:00:00 13,1 11,0 11 6 - - SSE 1012,1 15
15.10.2018 09:00:00 10,7 9,7 4 2 - - N 1011,9 15
15.10.2018 08:00:00 10,3 9,1 7 4 - - S 1011,6 20
15.10.2018 07:00:00 10,5 9,3 7 4 - - S 1011,2 20
15.10.2018 06:00:00 11,5 9,2 7 4 - - N 1011,0 15
15.10.2018 05:00:00 13,8 9,7 7 4 - - S 1011,0 15
15.10.2018 04:00:00 15,9 9,3 4 2 - - SW 1010,8 15
15.10.2018 03:00:00 16,7 9,4 22 12 - - S 1010,7 18
15.10.2018 02:00:00 16,7 9,3 29 16 - - S 1010,5 20
15.10.2018 01:00:00 16,7 9,4 29 16 - - S 1010,4 20
15.10.2018 00:00:00 16,8 9,7 29 16 - - S 1010,3 20
14.10.2018 23:00:00 17,5 9,8 25 14 - - S 1010,3 20
14.10.2018 22:00:00 17,9 10,0 29 16 47 25 S 1010,2 20
14.10.2018 21:00:00 18,2 10,2 29 16 - - S 1009,9 20
14.10.2018 20:00:00 18,4 10,3 25 14 - - S 1009,6 20
14.10.2018 19:00:00 18,7 10,8 22 12 - - SSE 1009,5 20
14.10.2018 18:00:00 20,0 10,8 22 12 - - S 1009,1 -
14.10.2018 17:00:00 21,0 10,8 22 12 - - SSE 1009,1 -
14.10.2018 16:00:00 21,3 10,9 18 10 - - SSE 1009,2 -
14.10.2018 15:00:00 20,9 11,1 22 12 - - SSE 1009,7 -
14.10.2018 14:00:00 20,5 11,2 18 10 - - SSE 1010,3 -
14.10.2018 13:00:00 19,4 10,8 18 10 - - SSE 1011,1 -
14.10.2018 12:00:00 18,5 10,3 14 8 - - SSE 1011,7 -
14.10.2018 11:00:00 16,6 9,7 14 8 - - SSE 1012,0 -
14.10.2018 10:00:00 14,2 9,1 11 6 - - SSE 1012,5 -
14.10.2018 09:00:00 13,0 8,5 14 8 - - SSE 1012,3 -
14.10.2018 08:00:00 12,7 8,1 18 10 - - SE 1012,5 -
14.10.2018 07:00:00 13,4 8,2 11 6 - - SSE 1013,0 -
14.10.2018 06:00:00 14,2 8,4 18 10 - - SSE 1013,7 20
14.10.2018 05:00:00 15,2 8,6 14 8 - - SSE 1014,1 20
14.10.2018 04:00:00 16,3 8,8 25 14 - - S 1014,5 20
14.10.2018 03:00:00 17,2 9,1 29 16 - - S 1015,1 20
14.10.2018 02:00:00 17,9 9,4 25 14 - - S 1015,4 25
14.10.2018 01:00:00 18,4 10,1 25 14 - - S 1015,7 25
14.10.2018 00:00:00 18,8 10,6 25 14 - - S 1015,9 25
13.10.2018 23:00:00 19,3 11,5 25 14 - - S 1016,1 25
13.10.2018 22:00:00 19,4 12,3 25 14 - - S 1016,4 20
13.10.2018 21:00:00 19,7 12,9 22 12 - - SSE 1016,7 20
13.10.2018 20:00:00 20,3 13,5 22 12 - - SSE 1017,1 20
13.10.2018 19:00:00 21,0 13,9 22 12 - - SSE 1017,3 20
13.10.2018 18:00:00 22,4 14,4 18 10 - - SSE 1017,3 20
13.10.2018 17:00:00 24,2 14,5 18 10 - - S 1017,7 25
13.10.2018 16:00:00 24,4 14,2 18 10 - - S 1018,3 25
13.10.2018 15:00:00 24,2 14,5 18 10 - - S 1018,7 25
13.10.2018 14:00:00 23,6 14,0 22 12 - - S 1019,2 25
13.10.2018 13:00:00 22,6 14,2 14 8 - - S 1019,6 20
13.10.2018 12:00:00 21,4 13,9 18 10 - - S 1020,0 20
13.10.2018 11:00:00 19,7 13,7 22 12 - - S 1020,0 20
13.10.2018 10:00:00 17,0 13,1 25 14 - - S 1020,1 15
13.10.2018 09:00:00 15,8 12,7 22 12 - - S 1020,3 15
13.10.2018 08:00:00 15,8 12,6 25 14 - - S 1019,9 15
13.10.2018 07:00:00 16,7 12,7 29 16 - - S 1020,1 15
13.10.2018 06:00:00 16,9 12,8 29 16 - - S 1020,0 15
13.10.2018 05:00:00 17,1 12,7 29 16 - - S 1019,9 15
13.10.2018 04:00:00 17,5 12,6 29 16 - - S 1019,9 15
13.10.2018 03:00:00 18,2 12,5 29 16 47 25 S 1019,4 20
13.10.2018 02:00:00 18,1 12,4 29 16 - - S 1019,6 20
13.10.2018 01:00:00 17,4 12,6 25 14 - - S 1019,6 20
13.10.2018 00:00:00 17,1 12,8 25 14 - - S 1020,0 20
12.10.2018 23:00:00 17,1 13,0 25 14 - - S 1020,3 20
12.10.2018 22:00:00 17,0 13,1 25 14 - - S 1020,3 20
12.10.2018 21:00:00 17,0 13,2 25 14 - - S 1020,1 20
12.10.2018 20:00:00 16,6 13,4 22 12 - - S 1020,0 20
12.10.2018 19:00:00 15,3 13,5 18 10 - - S 1020,0 20

tt = temperature
td = dewpoint
ff = wind speed
fx = gusts
dd = wind direction
ppp = reduced air pressure
vv = visibility

Next stations